Weather in Sheptukhovka

Russia / Kursk Oblast     51°26′37″N   35°09′59″E
temp.,
°C
wind,
m/s
gust,
m/s
humid.,
%
clouds,
%
prec.,
mm/h
press.,
hPa
HPBL,
m
19 january, wed
wed1900:00−8n81690100 0.7 1015714
03:00−10nnw71492100 0.8 1018519
06:00−12nnw6139494 0.0 1020337
09:00−16nnw379856 0.1 1022105
12:00−13nnw379485 0.0 1022194
15:00−11nw259364 0.0 1021201
18:00−16w229959 0.0 10229
21:00−17sw229964 0.0 102117
20 january, thu
thu2000:00−14ssw359981 0.0 102060
03:00−13ssw379783 0.0 1019104
06:00−11s4109778 0.1 1016142
09:00−11s51297100 0.1 1015215
12:00−6s61395100 0.1 1013404
15:00−4s71494100 0.3 1009548
18:00−3s81493100 0.0 1008565
21:00−5ssw71491100 0.0 1007447
21 january, fri
fri2100:00−4s61196100 0.3 1006434
03:00−4s5996100 2.2 1004399
06:00−4ssw3797100 1.3 1002283
09:00−4ssw4897100 2.4 1002257
12:00−3wsw6992100 1.1 1002803
15:00−5sw71293100 1.1 1003672
18:00−5ssw81492100 0.2 1002785
21:00−4sw81595100 1.0 1002809
22 january, sat
sat2200:00−4sw81593100 0.8 1003772
03:00−5sw71494100 1.1 1004644
06:00−5ssw71395100 0.4 1004597
09:00−6ssw61295100 0.9 1005499
12:00−5ssw61095100 0.5 1007499
15:00−4s4895100 0.9 1008474
18:00−4ssw4796100 0.8 1010362
21:00−7s359786 1.0 101368
23 january, sun
sun2300:00−11s229990 0.1 101621
03:00−14sse22100100 0.1 101810
06:00−13ese229998 0.1 102035
09:00−16e22100100 0.1 102320
12:00−8ene339896 0.1 1025237
15:00−7ne359497 0.1 1026316
18:00−13ne379761 0.0 102896
21:00−15ne3109792 0.0 1029142